Hourly Data Report for May 09, 2012

All times are specified in Local Standard Time (LST). Add 1 hour to adjust for Daylight Saving Time where and when it is observed.

DEER LAKE A
NEWFOUNDLAND

49°12'33.000" N
57°23'40.000" W
21.90 m
8401502
71809
YDF

Download Data

Hourly Data (May 2012)
Hourly Data Report for May 9, 2012
Temp Definition
°C
Dew Point Temp Definition
°C
Rel Hum Definition
%
Wind Dir Definition
10's deg

Wind Spd Definition
km/h
Visibility Definition
km
Stn Press Definition
kPa
Hmdx Definition


Wind Chill Definition


Weather Definition


TIME
00:30 Legend Double Dagger 4.6 2.3 85 18 6 10.0 101.66     LegendNANA
01:30 Legend Double Dagger 4.0 2.5 90   0 10.0 101.64     LegendNANA
02:30 Legend Double Dagger 4.1 2.8 91   0 10.0 101.61     Mostly Cloudy
03:30 Legend Double Dagger 3.9 2.7 92   0 10.0 101.60     LegendNANA
04:30 Legend Double Dagger 2.9 1.9 93   0 10.0 101.58     LegendNANA
05:30 Legend Double Dagger 3.5 2.6 94   0 10.0 101.58     Cloudy
06:30 Legend Double Dagger 4.9 3.6 91   0 10.0 101.57     LegendNANA
07:30 Legend Double Dagger 7.3 4.3 81 31 6 10.0 101.60     LegendNANA
08:30 Legend Double Dagger 10.7 5.1 68 21 22 10.0 101.59     Mostly Cloudy
09:30 Legend Double Dagger 12.3 5.1 61 22 14 10.0 101.51     LegendNANA
10:30 Legend Double Dagger 12.8 5.3 60 22 16 10.0 101.54     LegendNANA
11:30 Legend Double Dagger 12.8 4.8 58 23 11 10.0 101.48     Mostly Cloudy
12:30 Legend Double Dagger 13.6 4.8 55 21 15 10.0 101.39     LegendNANA
13:30 Legend Double Dagger 12.9 3.3 52 22 27 10.0 101.40     LegendNANA
14:30 Legend Double Dagger 12.4 3.9 56 22 32 10.0 101.40     Cloudy
15:30 Legend Double Dagger 12.3 4.3 58 19 22 10.0 101.36     LegendNANA
16:30 Legend Double Dagger 10.5 6.5 76 19 26 10.0 101.35     Rain
17:30 Legend Double Dagger 9.6 6.2 79 20 27 10.0 101.31     Rain
18:30 Legend Double Dagger 8.7 6.0 83 21 20 10.0 101.33     Rain
19:30 Legend Double Dagger 7.9 5.9 87 20 15 9.7 101.29     Rain,Fog
20:30 Legend Double Dagger 7.4 5.6 88 18 14 9.7 101.25     Rain,Fog
21:30 Legend Double Dagger 7.1 5.1 87 18 17 9.7 101.22     Rain,Fog
22:30 Legend Double Dagger 7.0 5.2 88 19 17 9.7 101.18     Rain,Fog
23:30 Legend Double Dagger 7.2 5.5 89 20 13 9.7 101.12     Rain,Fog

Notes on Data Quality.

Legend

  • E = Estimated
  • M = Missing
  • NA = Not Available
  • ‡ = Partner data that is not subject to review by the National Climate Archives
Date modified: